Regional Weather Roundup
Issued by NWS

Home | Current Version | Previous Version | Text Only | Print | Product List | Glossary On
Versions: 1 2 3 4 5 6 7 8 9 10 11 12 13 14 15 16 17 18 19 20 21 22 23 24 25 26 27 28 29 30 31 32 33 34 35 36 37 38 39 40 41 42 43 44 45 46 47 48 49 50
000
ASUS43 KOAX 191802
RWRNE

WEATHER ROUNDUP FOR NEBRASKA
NATIONAL WEATHER SERVICE OMAHA NE
100 PM CDT SUN APR 19 2015

NOTES: SATELLITE DATA IS BEING USED TO AUGMENT CLOUD COVER ABOVE
       12000 FEET.
       "FAIR" INDICATES FEW OR NO CLOUDS BELOW 12,000 FEET WITH NO
       SIGNIFICANT WEATHER AND/OR OBSTRUCTIONS TO VISIBILITY.

  * THESE STATIONS DO NOT REPORT WEATHER SUCH AS RAIN...SNOW OR FOG.

NEZ001>004-019>022-054>056-191900-
NEBRASKA PANHANDLE

CITY           SKY/WX    TMP DP  RH WIND       PRES   REMARKS
SCOTTSBLUFF    MOSUNNY   49  22  34 NW31G38   30.09F
6HR MIN TEMP:  37; 6HR MAX TEMP:  49;

ALLIANCE       SUNNY     47  21  35 N35G45    30.04F
6HR MIN TEMP:  36; 6HR MAX TEMP:  48;

CHADRON        PTSUNNY   49  26  41 NW18G29   30.06F
6HR MIN TEMP:  34; 6HR MAX TEMP:  49;

SIDNEY         CLOUDY    44  24  45 N29G37    30.08F
6HR MIN TEMP:  37; 6HR MAX TEMP:  45;

$$

NEZ057>060-069>072-079>082-191900-
SOUTHWEST NEBRASKA

CITY           SKY/WX    TMP DP  RH WIND       PRES   REMARKS
NORTH PLATTE   MOSUNNY   52  23  32 NW24G40   29.98F
6HR MIN TEMP:  45; 6HR MAX TEMP:  53; 6HR PCP:  0.01;

IMPERIAL       CLOUDY    48  26  42 N25G37    30.04R
6HR MIN TEMP:  44; 6HR MAX TEMP:  50; 6HR PCP: TRACE;

LEXINGTON      CLOUDY    49  35  59 N22G28    29.96F
MCCOOK         CLOUDY    53  30  41 N26G35    29.98F
6HR MIN TEMP:  45; 6HR MAX TEMP:  54; 6HR PCP:  0.18;

$$

NEZ005>010-023>029-035>040-094-191900-
NORTH CENTRAL NEBRASKA

CITY           SKY/WX    TMP DP  RH WIND       PRES   REMARKS
VALENTINE      PTSUNNY   52  27  38 NW31G43   29.95F
6HR MIN TEMP:  43; 6HR MAX TEMP:  52;

AINSWORTH      PTSUNNY   51  30  44 N33G39    29.94F
BROKEN BOW     CLOUDY    50  30  46 N33G44    29.93S
6HR MIN TEMP:  46; 6HR MAX TEMP:  50; 6HR PCP:  0.01;

ORD            CLOUDY    49  31  49 N24G38    29.90S
6HR MIN TEMP:  46; 6HR MAX TEMP:  49; 6HR PCP:  0.02;

$$

NEZ041-046>049-061>064-073>077-083>087-191900-
SOUTH CENTRAL NEBRASKA

CITY           SKY/WX    TMP DP  RH WIND       PRES   REMARKS
GRAND ISLAND   CLOUDY    52  31  44 N33G45    29.88F
6HR MIN TEMP:  47; 6HR MAX TEMP:  53; 6HR PCP:  0.21;

HASTINGS       CLOUDY    51  34  52 N31G38    29.88F
6HR MIN TEMP:  48; 6HR MAX TEMP:  51; 6HR PCP:  0.12;

KEARNEY *        N/A    N/A N/A N/A MISG        N/A
YORK           CLOUDY    50  39  66 N20G33    29.83S
$$

NEZ011>018-030>034-042>045-191900-
NORTHEAST NEBRASKA

CITY           SKY/WX    TMP DP  RH WIND       PRES   REMARKS
BLAIR          LGT RAIN  49  48  95 NW26G39   29.72F
COLUMBUS *     CLOUDY    48  37  66 N17G28    29.83S
FREMONT        RAIN      50  47  92 NW22G30   29.77S
TEKAMAH        RAIN      50  47  89 NW28      29.76S FOG
6HR MIN TEMP:  50; 6HR MAX TEMP:  56; 6HR PCP:  0.70;

$$

NEZ050>053-065>068-078-088>093-191900-
SOUTHEAST NEBRASKA

CITY           SKY/WX    TMP DP  RH WIND       PRES   REMARKS
LINCOLN        CLOUDY    51  46  83 N23G32    29.78S
6HR MIN TEMP:  51; 6HR MAX TEMP:  54; 6HR PCP:  0.10;

OMAHA EPPLEY   LGT RAIN  52  49  89 N18G26    29.73F
6HR MIN TEMP:  52; 6HR MAX TEMP:  56; 6HR PCP:  0.63;

FALLS CITY     CLOUDY    55  50  83 NW15      29.71R
6HR MIN TEMP:  54; 6HR MAX TEMP:  58; 6HR PCP:  0.09;

PLATTSMOUTH    LGT RAIN  52  49  90 NW24      29.71F
$$

NEZ044-045-051>053-067-191900-
OMAHA AREA

CITY           SKY/WX    TMP DP  RH WIND       PRES   REMARKS
OMAHA EPPLEY   LGT RAIN  52  49  89 N18G26    29.73F
6HR MIN TEMP:  52; 6HR MAX TEMP:  56; 6HR PCP:  0.63;

BLAIR          LGT RAIN  49  48  95 NW26G39   29.72F
FREMONT        RAIN      50  47  92 NW22G30   29.77S
OFFUTT AFB     CLOUDY    54  52  94 NW16G24   29.71F
PLATTSMOUTH    LGT RAIN  52  49  90 NW24      29.71F
$$



USA.gov is the U.S. government's official web portal to all federal, state and local government web resources and services.